DECAYED

OBJECT AG, 57034 (Decayed)

Orbit data source: Space-Track

You're viewing an Uncataloged Satellite

Recently launched and/or uncataloged satellites may have evolving metadata. Metadata may include but not limited to: Owner, Maufacturer, Bus, Motor, and Mission.

OBJECT AG, 57034 was a Chinese satellite in LEO that was launched on Thu, 15 Jun 2023 UTC via a CHANG ZHENG 2D launch vehicle from the Taiyaun Space Center, China (TSC). Unknown objects in Earth's orbit typically refer to objects detected orbiting the Earth but have not yet been identified or cataloged. These objects could be anything from previously untracked satellites, spent rocket stages, debris from satellite collisions, or even natural meteoroids temporarily captured by Earth's gravity. This object's orbit decayed before it could be identified.

Not visible in the next 10 days
Identifier
57034, 2023-085AG
Orbit
Decayed
Country
Flag of CNCN / PRC
Related business
None
Manufacturer
Unknown
Mission
Decayed Commercial Imaging
Bus & Motor
Unknown
Mass
Unknown
Launch date (UTC)
2023-06-15 (3 years ago)
Launch vehicle
CHANG ZHENG 2D
Launch site
Taiyaun Space Center, China (TSC)
Object type
Unknown
Shape & HBR
Box, 0.8 m
Radar Cross Section
2.000 m², Medium (>0.1 m² and < 1m²)

Expand to show TLE details & history
Last TLE update: 8 months ago

TLE from 8 months ago
0 OBJECT AG
1 57034U 23085AG  25285.41158435  .18571295  26173-5  37656-3 0  9992
2 57034  97.4630  48.7551 0009427 271.4469  88.5754 16.46511980130030
Epoch: 2025-10-12T09:52Z
TLE epoch observation values (Epoch: 2025-10-12T09:52:40.887Z)
Latitude
-0.00002°
Longitude
-120.64436°
Altitude
151.648 km
Speed
7.815 km/s
True Right ascension
03h 15m 01s
True Declination
0° 00' 00"
Sunlit
Object was in full shadow at epoch
Visualization orbit readout
Latitude
Unknown
Longitude
Unknown
Altitude
Unknown
Speed
Unknown
Apparent Right ascension
Unknown
Apparent Declination
Unknown
Sunlit
N/A
Visualization observer readout
Local Sidereal Time
21:33:21
Azimuth
Unknown
Elevation
Unknown
Doppler factor
Unknown
Orbital elements
Apogee altitude
151.489 km
Perigee altitude
139.189 km
Semi-major axis
6,523.476 km
Eccentricity
0.00094
Inclination
97.463°
RAAN
48.7551°
Arg. of periapsis
271.4469°
True anomaly
88.6834°
Mean anomaly
88.5754°
Eccentric anomaly
88.6294°
Mean motion
4.11931 °/min
Orbital period
87.39 mins
BSTAR
0.00037656
Loading maneuver chart data...
Computing Atmospheric mass density...
Loading historical data...
Loading historical data...
Loading historical data...
Loading historical data...
Loading historical data...
Loading historical data...
Loading historical data...

Documentation

Showing up to 5 results
|